Waarnemingen

Advertentie
Mijn weer
Koksijde, België (6400): temperatuur & dauwpunt: 03.12.2019 23:00:00 - 09.12.2019 23:00:00 (CET)Koksijde, België (6400): windsnelheid & windstoten: 03.12.2019 23:00:00 - 09.12.2019 23:00:00 (CET)Koksijde, België (6400): windrichting: 03.12.2019 23:00:00 - 09.12.2019 23:00:00 (CET)Koksijde, België (6400): luchtdruk: 03.12.2019 23:00:00 - 09.12.2019 23:00:00 (CET)Koksijde, België (6400): zicht: 03.12.2019 23:00:00 - 09.12.2019 23:00:00 (CET)
Datum & Tijd tt [°C] td [°C] ff [km/u] ff [kn] fx [km/u] fx [kn] dd ppp [hPa] vv [km]
09.12.2019 23:00:00 7,0 1,0 25 14 40 21 NNW 1024,0 13
09.12.2019 22:00:00 6,3 1,6 25 14 - - NNW 1023,2 12
09.12.2019 21:00:00 6,7 1,9 25 14 50 27 NW 1022,5 13
09.12.2019 20:00:00 7,6 1,4 29 16 58 31 NNW 1020,7 12
09.12.2019 19:00:00 7,6 2,0 32 18 - - NNW 1019,2 10
09.12.2019 18:00:00 7,2 3,4 36 19 61 33 NNW 1017,3 10
09.12.2019 17:00:00 7,6 3,4 40 21 68 37 NNW 1015,5 11
09.12.2019 16:00:00 8,2 3,6 40 21 - - NNW 1012,8 8
09.12.2019 15:00:00 8,2 3,1 43 23 76 41 NNW 1010,7 8
09.12.2019 14:00:00 8,3 3,6 47 25 72 39 NW 1008,2 10
09.12.2019 13:00:00 8,2 3,5 43 23 - - NW 1006,5 7
09.12.2019 12:00:00 8,5 3,6 40 21 61 33 NW 1004,6 9
09.12.2019 11:00:00 8,5 4,4 36 19 54 29 NW 1002,8 15
09.12.2019 10:00:00 8,5 5,1 34 18 - - NW 1000,3 10
09.12.2019 09:00:00 8,4 5,4 26 14 47 25 WNW 998,4 10
09.12.2019 08:00:00 8,5 5,0 32 18 47 25 WNW 996,5 15
09.12.2019 07:00:00 8,8 4,5 29 16 - - W 995,0 12
09.12.2019 06:00:00 8,5 4,0 36 19 68 37 W 994,1 16
09.12.2019 05:00:00 8,7 4,7 43 23 68 37 W 992,7 14
09.12.2019 04:00:00 6,5 5,4 34 18 - - ZZW 991,8 10
09.12.2019 03:00:00 6,4 5,0 36 19 50 27 Z 993,3 9
09.12.2019 02:00:00 6,5 4,4 29 16 43 23 ZZW 995,0 16
09.12.2019 01:00:00 7,5 4,9 32 18 - - ZW 996,4 10
09.12.2019 00:00:00 7,5 4,0 22 12 40 21 ZZW 997,2 13
08.12.2019 23:00:00 7,7 3,8 26 14 40 21 ZW 998,3 7
08.12.2019 22:00:00 7,4 3,5 22 12 - - WZW 998,8 11
08.12.2019 21:00:00 8,0 3,5 25 14 40 21 WZW 999,7 12
08.12.2019 20:00:00 7,6 3,6 25 14 47 25 WZW 999,4 15
08.12.2019 19:00:00 8,3 3,6 32 18 - - WZW 1000,0 18
08.12.2019 18:00:00 8,9 4,7 32 18 50 27 ZW 999,9 15
08.12.2019 17:00:00 10,2 5,0 29 16 47 25 WZW 1000,7 9
08.12.2019 16:00:00 10,4 4,6 32 18 - - WZW 1001,3 9
08.12.2019 15:00:00 11,1 4,8 36 19 58 31 WZW 1001,7 11
08.12.2019 14:00:00 11,3 4,6 37 20 61 33 WZW 1002,2 9
08.12.2019 13:00:00 11,3 4,4 43 23 - - W 1002,8 9
08.12.2019 12:00:00 10,6 6,0 36 19 65 35 W 1003,2 7
08.12.2019 11:00:00 11,3 6,4 36 19 54 29 WZW 1003,1 11
08.12.2019 10:00:00 11,6 9,4 32 18 - - WZW 1002,2 11
08.12.2019 09:00:00 10,1 9,2 31 17 50 27 ZW 1001,7 10
08.12.2019 08:00:00 9,8 8,3 36 19 54 29 ZZW 1001,7 20
08.12.2019 07:00:00 9,3 7,8 32 18 - - ZZW 1002,2 20
08.12.2019 06:00:00 8,6 7,4 36 19 47 25 Z 1002,2 6
08.12.2019 05:00:00 9,4 6,8 36 19 58 31 ZW 1005,1 12
08.12.2019 04:00:00 9,5 6,2 36 19 - - ZZW 1005,7 20
08.12.2019 03:00:00 8,8 5,5 25 14 36 19 ZZW 1007,0 20
08.12.2019 02:00:00 9,0 5,6 29 16 43 23 ZZW 1008,5 20
08.12.2019 01:00:00 9,1 5,8 25 14 - - ZZW 1009,7 19
08.12.2019 00:00:00 9,7 6,7 29 16 40 21 ZZW 1011,1 19
07.12.2019 23:00:00 9,6 7,0 28 15 40 21 ZW 1012,2 10
07.12.2019 22:00:00 9,5 7,4 25 14 - - ZW 1013,0 16
07.12.2019 21:00:00 9,1 7,5 18 10 25 14 ZZW 1013,7 4,5
07.12.2019 20:00:00 8,6 7,2 14 8 22 12 ZZW 1014,2 10
07.12.2019 19:00:00 8,1 5,8 11 6 - - ZZW 1014,8 16
07.12.2019 18:00:00 8,5 6,3 11 6 14 8 ZZW 1015,1 14
07.12.2019 17:00:00 8,9 5,8 11 6 22 12 ZW 1015,2 20
07.12.2019 16:00:00 9,6 5,2 14 8 - - WZW 1014,7 20
07.12.2019 15:00:00 10,2 5,8 14 8 25 14 WZW 1015,0 17
07.12.2019 14:00:00 10,3 6,1 18 10 25 14 WZW 1015,2 19
07.12.2019 13:00:00 10,1 7,1 14 8 - - WZW 1015,2 15
07.12.2019 12:00:00 9,8 6,7 18 10 29 16 W 1015,1 15
07.12.2019 11:00:00 9,6 5,8 14 8 22 12 WZW 1015,1 16
07.12.2019 10:00:00 8,5 6,2 14 8 - - ZW 1014,7 17
07.12.2019 09:00:00 8,6 6,0 14 8 22 12 WZW 1014,3 16
07.12.2019 08:00:00 8,7 5,9 14 8 22 12 ZW 1013,6 14
07.12.2019 07:00:00 8,3 6,0 14 8 - - ZW 1012,7 17
07.12.2019 06:00:00 9,6 6,6 18 10 29 16 W 1012,3 13
07.12.2019 05:00:00 9,6 6,7 22 12 32 18 W 1012,0 11
07.12.2019 04:00:00 9,6 6,8 22 12 - - W 1011,5 11
07.12.2019 03:00:00 9,4 6,8 29 16 40 21 W 1010,7 10
07.12.2019 02:00:00 9,8 6,9 29 16 43 23 W 1009,8 12
07.12.2019 01:00:00 10,3 7,1 32 18 - - W 1009,3 12
07.12.2019 00:00:00 10,1 7,2 29 16 54 29 W 1008,6 13
06.12.2019 23:00:00 10,6 7,2 36 19 54 29 W 1007,7 12
06.12.2019 22:00:00 10,7 7,5 32 18 - - W 1006,3 12
06.12.2019 21:00:00 11,3 8,4 36 19 58 31 W 1005,3 13
06.12.2019 20:00:00 12,0 9,0 41 22 58 31 W 1004,7 10
06.12.2019 19:00:00 11,0 9,5 36 19 - - ZW 1004,2 19
06.12.2019 18:00:00 9,9 9,0 29 16 50 27 ZW 1004,2 6
06.12.2019 17:00:00 10,1 9,0 29 16 47 25 ZW 1004,5 7
06.12.2019 16:00:00 9,8 8,9 32 18 - - ZW 1004,7 9
06.12.2019 15:00:00 9,6 8,5 36 19 54 29 ZW 1005,3 9
06.12.2019 14:00:00 9,4 8,3 36 19 54 29 ZW 1006,5 8
06.12.2019 13:00:00 9,1 7,8 32 18 - - ZZW 1007,7 8
06.12.2019 12:00:00 8,2 7,1 29 16 47 25 ZZW 1009,0 8
06.12.2019 11:00:00 7,8 7,1 32 18 47 25 ZZW 1010,0 5
06.12.2019 10:00:00 7,6 6,7 29 16 - - ZZW 1010,2 6
06.12.2019 09:00:00 6,9 6,0 25 14 36 19 ZZW 1010,7 6
06.12.2019 08:00:00 6,5 5,6 25 14 36 19 ZZW 1011,2 7
06.12.2019 07:00:00 5,8 4,9 26 14 - - ZZW 1011,7 7
06.12.2019 06:00:00 5,5 4,5 22 12 43 23 ZZW 1012,0 4,5
06.12.2019 05:00:00 5,5 4,2 29 16 40 21 ZZW 1012,6 5
06.12.2019 04:00:00 5,8 4,1 25 14 - - ZZW 1013,5 6
06.12.2019 03:00:00 5,5 3,8 29 16 43 23 ZZW 1013,6 6
06.12.2019 02:00:00 5,5 4,0 25 14 40 21 ZZW 1014,3 5
06.12.2019 01:00:00 5,3 4,0 29 16 - - ZZW 1015,2 4,3
06.12.2019 00:00:00 4,8 3,7 25 14 36 19 ZZW 1016,1 3,3
05.12.2019 23:00:00 4,0 3,1 25 14 40 21 ZZW 1016,8 2,8
05.12.2019 22:00:00 3,5 2,8 22 12 - - ZZW 1017,2 2,6
05.12.2019 21:00:00 3,2 2,5 29 16 36 19 Z 1017,6 2,0
05.12.2019 20:00:00 3,5 2,9 25 14 36 19 ZZW 1018,5 2,1
05.12.2019 19:00:00 4,3 3,8 22 12 - - Z 1018,6 1,7
05.12.2019 18:00:00 4,3 4,2 18 10 29 16 Z 1019,3 1,0
05.12.2019 17:00:00 3,9 3,9 14 8 25 14 Z 1019,5 1,1
05.12.2019 16:00:00 3,5 3,4 11 6 - - ZZW 1020,5 0,3
05.12.2019 15:00:00 2,5 2,5 14 8 22 12 ZZW 1020,8 0,3
05.12.2019 14:00:00 2,2 2,2 14 8 22 12 ZZW 1021,2 0,3
05.12.2019 13:00:00 1,5 1,5 14 8 - - ZZW 1021,8 0,2
05.12.2019 12:00:00 0,2 0,2 14 8 22 12 ZZW 1022,1 0,2
05.12.2019 11:00:00 0,3 0,0 9 5 22 12 ZW 1022,1 1,8
05.12.2019 10:00:00 0,0 -0,3 7 4 - - ZZW 1022,2 2,5
05.12.2019 09:00:00 -0,2 -0,6 11 6 14 8 ZZW 1022,2 2,5
05.12.2019 08:00:00 -0,7 -1,2 7 4 14 8 ZW 1022,0 4,0
05.12.2019 07:00:00 -0,9 -1,5 7 4 - - ZW 1021,5 7
05.12.2019 06:00:00 -0,9 -1,6 7 4 11 6 ZZW 1021,0 2,1
05.12.2019 05:00:00 -1,1 -1,7 7 4 11 6 ZW 1020,7 2,0
05.12.2019 04:00:00 -1,3 -1,7 7 4 - - N 1021,2 1,8
05.12.2019 03:00:00 -1,4 -1,6 4 2 7 4 N 1021,2 1,5
05.12.2019 02:00:00 -1,6 -1,8 4 2 7 4 N 1021,1 1,5
05.12.2019 01:00:00 -1,2 -1,5 4 2 - - - 1021,1 1,5
05.12.2019 00:00:00 -1,1 -1,1 4 2 7 4 N 1021,5 1,2
04.12.2019 23:00:00 -0,8 -1,0 4 2 7 4 N 1021,3 2,1
04.12.2019 22:00:00 -0,7 -0,9 2 1 - - - 1021,2 1,7
04.12.2019 21:00:00 -0,4 -0,7 2 1 7 4 - 1021,6 1,9
04.12.2019 20:00:00 -0,1 -0,7 4 2 7 4 N 1021,1 2,6
04.12.2019 19:00:00 1,1 0,3 4 2 - - N 1020,8 2,9
04.12.2019 18:00:00 2,7 1,0 4 2 7 4 N 1020,7 7
04.12.2019 17:00:00 3,5 1,5 4 2 7 4 N 1020,5 7
04.12.2019 16:00:00 5,0 1,8 4 2 - - N 1020,6 12
04.12.2019 15:00:00 5,9 1,5 4 2 7 4 N 1020,7 12
04.12.2019 14:00:00 6,0 0,8 4 2 7 4 N 1021,2 12
04.12.2019 13:00:00 5,6 1,0 4 2 - - N 1021,7 10
04.12.2019 12:00:00 4,2 1,5 4 2 11 6 N 1022,3 7
04.12.2019 11:00:00 2,7 1,1 4 2 7 4 N 1022,8 6
04.12.2019 10:00:00 -0,1 -0,2 4 2 - - N 1023,0 4,0
04.12.2019 09:00:00 -1,5 -1,6 4 2 4 2 N 1022,8 2,0
04.12.2019 08:00:00 -1,2 -1,3 4 2 4 2 N 1022,7 1,2
04.12.2019 07:00:00 -1,3 -1,3 4 2 - - N 1022,7 0,4
04.12.2019 06:00:00 -0,8 -0,8 4 2 7 4 N 1023,0 0,8
04.12.2019 05:00:00 -0,8 -1,0 4 2 7 4 N 1023,1 1,5
04.12.2019 04:00:00 -0,5 -0,5 4 2 - - N 1023,8 1,3
04.12.2019 03:00:00 -0,1 -0,4 4 2 4 2 N 1024,5 1,5
04.12.2019 02:00:00 0,6 0,3 4 2 4 2 N 1024,9 1,7
04.12.2019 01:00:00 0,7 0,3 4 2 - - N 1025,4 1,9
04.12.2019 00:00:00 0,8 0,3 4 2 11 6 N 1025,7 1,7
03.12.2019 23:00:00 1,5 0,8 7 4 11 6 ZZW 1026,0 2,0

tt = temperatuur
td = dauwpunt
ff = windsnelheid
fx = windstoten
dd = windrichting
ppp = luchtdruk
vv = zicht

Weerstations in de omgeving